Date,TemperatureHighF,TemperatureAvgF,TemperatureLowF,DewpointHighF,DewpointAvgF,DewpointLowF,HumidityHigh,HumidityAvg,HumidityLow,PressureMaxIn,PressureMinIn,WindSpeedMaxMPH,WindSpeedAvgMPH,GustSpeedMaxMPH,PrecipitationSumIn
2013-3-1,34.7,25.2,17.2,15.0,12.6,10.0,72,60,40,30.30,30.17,3,0,0,0.00
2013-3-2,31.6,17.8,1.1,14.0,6.8,-5.0,87,64,37,30.33,30.16,5,0,0,0.00
2013-3-3,36.3,17.6,-2.2,10.0,1.8,-8.0,87,54,25,30.17,30.01,4,0,0,0.00
2013-3-4,27.5,22.3,12.9,20.0,11.3,0.0,79,63,49,30.04,29.97,7,1,0,0.00
2013-3-5,30.3,25.1,21.8,25.0,21.2,19.0,89,85,79,30.19,29.96,4,0,0,0.02
2013-3-6,32.5,23.1,8.1,20.0,14.9,2.0,85,72,52,30.35,30.18,6,1,0,0.19
2013-3-7,38.0,19.1,-3.3,18.0,8.3,-9.0,89,65,39,30.41,30.31,4,0,0,0.11
2013-3-8,45.1,28.1,9.9,27.0,18.9,6.0,92,70,49,30.36,30.11,8,1,0,0.01
2013-3-9,35.9,33.8,31.2,35.0,31.2,24.0,96,90,71,30.10,29.67,9,0,0,0.32
2013-3-10,36.6,33.8,30.0,34.0,31.7,29.0,97,92,81,29.85,29.68,5,1,0,0.12
2013-3-11,33.7,28.6,26.0,31.0,26.5,23.0,95,91,87,29.75,29.62,0,0,0,0.01
2013-3-12,32.2,24.8,19.5,23.0,17.7,13.0,88,75,55,30.08,29.74,12,2,0,0.01
2013-3-13,34.3,22.0,11.9,15.0,8.9,4.0,81,59,36,30.30,30.09,5,1,0,0.04
2013-3-14,41.6,26.2,14.6,29.0,19.7,8.0,86,77,58,30.25,29.98,4,1,0,0.09
2013-3-15,37.0,30.8,25.3,31.0,27.1,22.0,92,86,74,29.95,29.79,2,0,0,0.09
2013-3-16,30.3,22.7,14.0,25.0,15.2,5.0,92,74,54,30.17,29.80,6,1,0,0.23
2013-3-17,30.4,17.7,1.5,14.0,6.5,-5.0,79,63,40,30.26,29.93,5,1,0,0.03
2013-3-18,30.3,21.2,14.6,25.0,16.2,9.0,87,81,71,29.92,29.54,11,2,0,0.00
2013-3-19,26.1,16.2,8.4,8.0,3.5,-4.0,77,59,42,30.08,29.68,14,4,0,0.08
2013-3-20,21.3,10.9,1.5,3.0,-2.8,-8.0,71,55,42,30.12,30.06,7,2,0,0.00
2013-3-21,28.4,9.8,-11.0,9.0,-1.6,-18.0,84,62,42,30.12,30.04,4,1,0,0.02
2013-3-22,40.3,18.1,-3.9,17.0,5.1,-10.0,87,61,32,30.08,30.00,4,0,0,0.01
2013-3-23,43.5,26.1,10.0,22.0,15.6,6.0,90,67,39,30.13,30.02,4,0,0,0.00
2013-3-24,34.6,30.1,25.1,23.0,20.7,17.0,77,68,56,30.05,29.89,5,1,0,0.00
2013-3-25,38.0,28.0,14.8,22.0,17.4,10.0,86,66,45,30.15,29.95,7,1,0,0.00
2013-3-26,41.5,31.5,22.2,23.0,20.2,17.0,84,65,45,30.23,30.15,7,1,0,0.00
2013-3-27,46.2,35.0,22.9,23.0,18.0,12.0,74,53,27,30.29,30.23,5,1,0,0.00
2013-3-28,50.8,31.6,13.1,22.0,15.7,9.0,92,58,25,30.34,30.25,4,0,0,0.00
2013-3-29,51.1,33.7,16.7,25.0,19.4,13.0,90,61,27,30.29,30.07,4,0,0,0.00
2013-3-30,41.3,38.0,29.4,40.0,33.5,26.0,95,85,60,30.07,29.77,7,0,0,0.68
2013-3-31,40.9,33.4,27.2,33.0,24.3,12.0,96,73,35,29.96,29.70,9,2,0,0.01